GW6470 Weather Reports


time (UTC)temp
C
wind
direction
speed
KPH
gust
KPH
rain 1hr
cm
rain 24hr
cm
rain mn
cm
humidity
%
barometer
mb
20260505140449 10 180 0.0 0.0 0.00 0.00 0.00 94 1016.2
20260505124903 10 30 0.0 0.0 0.00 0.00 0.00 95 1015.9
20260505124400 10 30 0.0 0.0 0.00 0.00 0.00 95 1015.7
20260505123856 10 30 0.0 0.0 0.00 0.00 0.00 95 1015.7
20260505123353 10 30 0.0 0.0 0.00 0.00 0.00 95 1015.6
20260505122848 10 30 0.0 0.0 0.00 0.00 0.00 95 1015.5
20260505122346 10 29 0.0 0.0 0.00 0.00 0.00 95 1015.5
20260505121843 10 29 0.0 0.0 0.00 0.00 0.00 95 1015.5
20260505121340 10 57 0.0 0.0 0.00 0.00 0.00 95 1015.5
20260505120836 10 99 0.0 0.0 0.00 0.00 0.00 95 1015.8
20260505120332 10 140 0.0 0.0 0.00 0.00 0.00 95 1015.5
20260505115831 10 178 0.0 0.0 0.00 0.00 0.00 95 1015.6
20260505115328 10 121 0.0 0.0 0.00 0.00 0.00 95 1015.5
20260505114826 10 98 0.0 0.0 0.00 0.00 0.00 95 1015.4
20260505114322 10 90 0.0 0.0 0.00 0.00 0.00 95 1015.5
20260505113819 10 90 0.0 0.0 0.00 0.00 0.00 95 1015.4
20260505113315 10 89 0.0 0.0 0.00 0.00 0.00 95 1015.5
20260505112811 10 113 0.0 0.0 0.00 0.00 0.00 95 1015.6
20260505112309 10 111 0.0 0.0 0.00 0.00 0.00 95 1015.4
20260505111804 9 11 0.0 0.0 0.00 0.00 0.00 95 1015.5
20260505111300 9 11 0.0 0.0 0.00 0.00 0.00 95 1015.6
20260505110755 9 307 0.0 0.0 0.00 0.00 0.00 95 1015.3
20260505110254 9 18 0.0 0.0 0.00 0.00 0.00 95 1015.3
20260505101728 9 15 0.0 0.0 0.00 0.00 0.00 94 1014.9
20260505101223 9 5 0.0 0.0 0.00 0.00 0.00 94 1015.1
20260505100720 9 23 0.0 0.0 0.00 0.00 0.00 93 1015.0
20260505100217 9 326 0.0 0.0 0.00 0.00 0.00 93 1014.9
20260505095712 10 354 0.0 0.0 0.00 0.00 0.00 93 1014.6
20260505095211 10 109 0.0 0.0 0.00 0.00 0.00 93 1014.7
20260505094706 10 44 0.0 0.0 0.00 0.00 0.00 93 1014.7
20260505094202 10 32 0.0 0.0 0.00 0.00 0.00 92 1014.9
20260505093659 10 82 0.0 0.0 0.00 0.00 0.00 92 1014.8
20260505093156 10 113 0.0 0.0 0.00 0.00 0.00 92 1014.8
20260505092653 10 60 0.0 0.0 0.00 0.00 0.00 92 1014.6
20260505092152 10 42 0.0 0.0 0.00 0.00 0.00 93 1014.5
20260505091648 10 22 0.0 0.0 0.00 0.00 0.00 94 1014.6
20260505091146 10 23 0.0 0.0 0.00 0.00 0.00 94 1014.6
20260505090644 10 42 0.0 0.0 0.00 0.00 0.00 94 1014.3
20260505090142 10 42 0.0 0.0 0.00 0.00 0.00 94 1014.5
20260505085639 10 42 0.0 0.0 0.00 0.00 0.00 94 1014.3
20260505085137 10 51 0.0 0.0 0.00 0.00 0.00 94 1014.3
20260505084634 10 52 0.0 0.0 0.00 0.00 0.00 94 1014.4
20260505084133 10 52 0.0 0.0 0.00 0.00 0.00 94 1014.2
20260505083630 10 52 0.0 0.0 0.00 0.00 0.00 93 1014.3
20260505083126 10 52 0.0 0.0 0.00 0.00 0.00 93 1014.4
20260505082622 10 52 0.0 0.0 0.00 0.00 0.00 93 1014.4
20260505082120 10 52 0.0 0.0 0.00 0.00 0.00 93 1014.2
20260505081615 10 52 0.0 0.0 0.00 0.00 0.00 93 1014.4
20260505081113 10 43 0.0 0.0 0.00 0.00 0.00 92 1014.0
20260505080609 11 43 0.0 0.0 0.00 0.00 0.00 92 1013.9
20260505080106 11 43 0.0 0.0 0.00 0.00 0.00 92 1014.0
20260505075602 11 43 0.0 0.0 0.00 0.00 0.00 92 1014.0
20260505075059 11 46 0.0 0.0 0.00 0.00 0.00 92 1013.8
20260505074555 11 50 0.0 0.0 0.00 0.00 0.00 93 1013.7
20260505074053 11 48 0.0 0.0 0.00 0.00 0.00 92 1013.7
20260505073550 11 48 0.0 0.0 0.00 0.00 0.00 92 1013.6
20260505073049 11 48 0.0 0.0 0.00 0.00 0.00 92 1013.6
20260505072549 11 47 0.0 0.0 0.00 0.00 0.00 91 1013.5
20260505072046 11 40 0.0 0.0 0.00 0.00 0.00 91 1013.5
20260505071541 12 34 0.0 0.0 0.00 0.00 0.00 91 1013.6
20260505071040 12 25 0.0 0.0 0.00 0.00 0.00 91 1013.5
20260505070537 12 64 0.0 0.0 0.00 0.00 0.00 91 1013.4
20260505070033 12 63 0.0 0.0 0.00 0.00 0.00 91 1013.3
20260505065529 12 63 0.0 0.0 0.00 0.00 0.00 91 1013.2
20260505065025 12 74 0.0 0.0 0.00 0.00 0.00 91 1013.2
20260505064522 12 54 0.0 0.0 0.00 0.00 0.00 90 1013.0
20260505064021 12 62 0.0 0.0 0.00 0.00 0.00 89 1012.9
20260505063518 12 62 0.0 0.0 0.00 0.00 0.00 89 1012.7
20260505063013 13 71 0.0 0.0 0.00 0.00 0.00 89 1012.9
20260505062511 13 113 0.0 0.0 0.00 0.00 0.00 89 1012.8
20260505062008 13 82 0.0 0.0 0.00 0.00 0.00 88 1012.8
20260505061505 13 131 0.0 0.0 0.00 0.00 0.00 87 1012.8
20260505061003 13 158 0.0 0.0 0.00 0.00 0.00 87 1012.8
20260505060500 14 146 0.0 0.0 0.00 0.00 0.00 85 1012.9
20260505055956 14 99 0.0 0.0 0.00 0.00 0.00 81 1012.7
20260505055452 14 45 0.0 0.0 0.00 0.00 0.00 82 1012.6
20260505054949 14 25 0.0 0.0 0.00 0.00 0.00 82 1012.8
20260505054446 14 47 0.0 0.0 0.00 0.00 0.00 81 1012.7
20260505053944 14 194 0.0 0.0 0.00 0.00 0.00 81 1012.6
20260505053441 15 294 0.0 0.0 0.00 0.00 0.00 81 1012.6
20260505052938 15 323 0.0 0.0 0.00 0.00 0.00 81 1012.4
20260505052435 15 297 0.0 0.0 0.00 0.00 0.00 80 1012.5
20260505051932 15 289 0.0 0.0 0.00 0.00 0.00 79 1012.3
20260505051429 15 294 0.0 0.0 0.00 0.00 0.00 78 1012.4
20260505050927 15 187 0.0 0.0 0.00 0.00 0.00 79 1012.3
20260505050425 15 252 0.0 0.0 0.00 0.00 0.00 80 1012.2
20260505041352 17 163 0.0 0.0 0.00 0.00 0.00 76 1011.7
20260505040850 17 184 0.0 0.0 0.00 0.00 0.00 75 1011.8
20260505040347 17 165 0.0 0.0 0.00 0.00 0.00 76 1011.5
20260505035844 17 219 0.0 0.0 0.00 0.00 0.00 76 1011.4
20260505035339 18 288 0.0 0.0 0.00 0.00 0.00 74 1011.3
20260505034837 18 275 0.0 0.0 0.00 0.00 0.00 72 1011.3
20260505034333 18 19 0.0 0.0 0.00 0.00 0.00 74 1010.9
20260505033831 18 225 0.0 0.0 0.00 0.00 0.00 75 1011.3
20260505033328 18 282 0.0 0.0 0.00 0.00 0.00 73 1011.2
20260505032826 18 204 0.0 0.0 0.00 0.00 0.00 71 1010.8
20260505032322 19 216 0.0 0.0 0.00 0.00 0.00 70 1011.1
20260505031819 19 203 0.0 0.0 0.00 0.00 0.00 69 1010.7
20260505031315 19 189 0.0 0.0 0.00 0.00 0.00 70 1011.0
20260505030813 20 193 0.0 0.0 0.00 0.00 0.00 70 1010.6
20260505030310 20 135 0.0 0.0 0.00 0.00 0.00 69 1010.7
20260505025804 20 158 0.0 0.0 0.00 0.00 0.00 70 1010.6
20260505025304 20 155 0.0 0.0 0.00 0.00 0.00 70 1010.4
20260505024800 20 141 0.0 0.0 0.00 0.00 0.00 67 1010.4
20260505024258 20 195 0.0 0.0 0.00 0.00 0.00 67 1010.6
20260505023755 21 211 0.0 0.0 0.00 0.00 0.00 67 1010.3
20260505023252 21 164 0.0 0.0 0.00 0.00 0.00 67 1010.3
20260505022749 21 223 0.0 0.0 0.00 0.00 0.00 65 1010.5
20260505022246 21 233 0.0 0.0 0.00 0.00 0.00 65 1010.2
20260505021742 22 208 0.0 0.0 0.00 0.00 0.00 62 1010.3
20260505021240 22 252 0.0 0.0 0.00 0.00 0.00 62 1010.2
20260505020735 22 213 0.0 0.0 0.00 0.00 0.00 61 1010.3
20260505020231 22 175 0.0 0.0 0.00 0.00 0.00 61 1010.2
20260505015728 22 220 0.0 0.0 0.00 0.00 0.00 61 1010.4
20260505015225 22 175 0.0 0.0 0.00 0.00 0.00 60 1010.5
20260505014722 22 209 0.0 0.0 0.00 0.00 0.00 60 1010.2
20260505014220 22 247 0.0 0.0 0.00 0.00 0.00 61 1010.2
20260505013716 22 238 0.0 0.0 0.00 0.00 0.00 60 1010.2
20260505013213 23 218 0.0 0.0 0.00 0.00 0.00 60 1010.3
20260505012712 23 178 0.0 0.0 0.00 0.00 0.00 62 1010.2
20260505012208 23 168 0.0 0.0 0.00 0.00 0.00 62 1010.2
20260505011704 23 153 0.0 0.0 0.00 0.00 0.00 61 1010.5
20260505011201 23 210 0.0 0.0 0.00 0.00 0.00 61 1010.4
20260505010657 23 145 0.0 0.0 0.00 0.00 0.00 61 1010.5
20260505010154 23 180 0.0 0.0 0.00 0.00 0.00 61 1010.6
20260505005650 23 209 0.0 0.0 0.00 0.00 0.00 60 1010.6
20260505005147 23 251 0.0 0.0 0.00 0.00 0.00 60 1010.6
20260505004644 23 216 0.0 0.0 0.00 0.00 0.00 62 1010.5
20260505004140 23 194 0.0 0.0 0.00 0.00 0.00 60 1010.6
20260505003638 24 181 0.0 0.0 0.00 0.00 0.00 60 1010.4
20260505003135 23 223 0.0 0.0 0.00 0.00 0.00 62 1010.6
20260505002631 23 205 0.0 0.0 0.00 0.00 0.00 61 1010.4
20260505002129 23 272 0.0 0.0 0.00 0.00 0.00 60 1010.7
20260505001626 24 222 0.0 0.0 0.00 0.00 0.00 61 1010.5
20260505001124 23 211 0.0 0.0 0.00 0.00 0.00 60 1010.6
20260505000621 23 228 0.0 0.0 0.00 0.00 0.00 62 1010.8
20260505000119 23 221 0.0 0.0 0.00 0.00 0.00 61 1010.7
20260504235615 23 262 0.0 0.0 0.00 0.00 0.00 62 1010.8
20260504235111 23 200 0.0 0.0 0.00 0.00 0.00 61 1010.8
20260504234609 23 219 0.0 0.0 0.00 0.00 0.00 61 1010.8
20260504234106 24 221 0.0 0.0 0.00 0.00 0.00 61 1011.0
20260504233601 23 166 0.0 0.0 0.00 0.00 0.00 61 1011.1
20260504233058 23 92 0.0 0.0 0.00 0.00 0.00 60 1011.2
20260504232555 23 53 0.0 0.0 0.00 0.00 0.00 60 1010.9
20260504232053 23 238 0.0 0.0 0.00 0.00 0.00 62 1011.0
20260504231549 23 223 0.0 0.0 0.00 0.00 0.00 61 1011.1
20260504231045 22 242 0.0 0.0 0.00 0.00 0.00 62 1011.2
20260504230541 23 231 0.0 0.0 0.00 0.00 0.00 62 1011.5
20260504230041 23 124 0.0 0.0 0.00 0.00 0.00 60 1011.2
20260504225537 23 213 0.0 0.0 0.00 0.00 0.00 60 1011.2
20260504225034 23 169 0.0 0.0 0.00 0.00 0.00 62 1011.2
20260504224531 23 229 0.0 1.6 0.00 0.00 0.00 62 1011.5
20260504224028 23 217 0.0 0.0 0.00 0.00 0.00 61 1011.4
20260504223524 23 238 0.0 0.0 0.00 0.00 0.00 60 1011.5
20260504223020 23 277 0.0 1.6 0.00 0.00 0.00 60 1011.5
20260504222517 22 86 0.0 0.0 0.00 0.00 0.00 63 1011.6
20260504222015 23 201 0.0 0.0 0.00 0.00 0.00 60 1011.6
20260504221512 23 231 0.0 0.0 0.00 0.00 0.00 60 1011.5
20260504221009 22 221 0.0 0.0 0.00 0.00 0.00 61 1011.9
20260504220505 22 281 0.0 0.0 0.00 0.00 0.00 63 1011.8
20260504220002 22 296 0.0 0.0 0.00 0.00 0.00 61 1012.0
20260504215459 22 259 0.0 0.0 0.00 0.00 0.00 61 1011.9
20260504214956 21 276 0.0 0.0 0.00 0.00 0.00 62 1012.0
20260504214452 21 28 0.0 0.0 0.00 0.00 0.00 62 1012.1
20260504213949 22 32 1.6 4.8 0.00 0.00 0.00 62 1012.1
20260504213444 21 137 0.0 0.0 0.00 0.00 0.00 65 1012.3
20260504212942 21 67 0.0 0.0 0.00 0.00 0.00 67 1012.2
20260504212438 20 130 0.0 0.0 0.00 0.00 0.00 67 1012.4
20260504211936 20 38 0.0 0.0 0.00 0.00 0.00 66 1012.4
20260504211432 21 53 0.0 0.0 0.00 0.00 0.00 68 1012.4
20260504210930 20 22 0.0 0.0 0.00 0.00 0.00 67 1012.8
20260504210426 21 78 0.0 0.0 0.00 0.00 0.00 66 1012.6
20260504205923 20 235 0.0 0.0 0.00 0.00 0.00 65 1012.9
20260504205421 19 63 0.0 0.0 0.00 0.00 0.00 69 1012.8
20260504204919 20 51 0.0 0.0 0.00 0.00 0.00 67 1013.0
20260504204417 20 120 0.0 0.0 0.00 0.00 0.00 66 1013.1
20260504203916 20 220 0.0 0.0 0.00 0.00 0.00 66 1013.1
20260504203413 20 17 0.0 0.0 0.00 0.00 0.00 65 1013.2
20260504202909 20 161 0.0 0.0 0.00 0.00 0.00 65 1013.4
20260504202406 19 25 0.0 0.0 0.00 0.00 0.00 68 1013.3
20260504201902 19 130 0.0 0.0 0.00 0.00 0.00 68 1013.1
20260504201400 19 99 0.0 0.0 0.00 0.00 0.00 70 1013.4
20260504200857 19 85 0.0 0.0 0.00 0.00 0.00 70 1013.4
20260504200353 18 225 0.0 0.0 0.00 0.00 0.00 69 1013.6
20260504195850 18 79 0.0 0.0 0.00 0.00 0.00 73 1013.3
20260504195346 17 24 0.0 0.0 0.00 0.00 0.00 73 1013.7
20260504194843 18 83 0.0 0.0 0.00 0.00 0.00 74 1013.4
20260504194339 17 115 0.0 0.0 0.00 0.00 0.00 75 1013.6
20260504193835 17 52 0.0 0.0 0.00 0.00 0.00 74 1013.5
20260504193332 17 204 0.0 0.0 0.00 0.00 0.00 73 1013.7
20260504192831 17 194 0.0 0.0 0.00 0.00 0.00 72 1013.6
20260504192329 16 29 0.0 0.0 0.00 0.00 0.00 75 1013.9
20260504191827 16 30 0.0 0.0 0.00 0.00 0.00 75 1013.8
20260504191324 17 30 0.0 0.0 0.00 0.00 0.00 74 1013.9
20260504190819 16 41 0.0 0.0 0.00 0.00 0.00 74 1013.9
20260504190316 17 182 0.0 0.0 0.00 0.00 0.00 74 1013.8
20260504185812 17 300 0.0 0.0 0.00 0.00 0.00 74 1013.9
20260504185309 16 3 0.0 0.0 0.00 0.00 0.00 75 1014.1
20260504184805 16 205 0.0 0.0 0.00 0.00 0.00 75 1014.0
20260504184301 15 250 0.0 0.0 0.00 0.00 0.00 77 1014.2
20260504183757 15 213 0.0 0.0 0.00 0.00 0.00 77 1014.3
20260504183254 15 255 0.0 0.0 0.00 0.00 0.00 78 1014.3
20260504182752 15 181 0.0 0.0 0.00 0.00 0.00 79 1014.1
20260504182249 15 125 0.0 0.0 0.00 0.00 0.00 79 1014.1
20260504181747 15 220 0.0 0.0 0.00 0.00 0.00 78 1013.8
20260504181244 15 256 0.0 0.0 0.00 0.00 0.00 78 1014.2
20260504180743 15 135 0.0 0.0 0.00 0.00 0.00 78 1014.1
20260504180241 15 104 0.0 0.0 0.00 0.00 0.00 78 1014.1
20260504175739 15 158 0.0 0.0 0.00 0.00 0.00 81 1014.0
20260504175235 15 42 0.0 0.0 0.00 0.00 0.00 79 1014.0
20260504174733 15 11 0.0 0.0 0.00 0.00 0.00 78 1014.2
20260504174231 15 23 0.0 0.0 0.00 0.00 0.00 79 1014.2
20260504173727 15 22 0.0 0.0 0.00 0.00 0.00 79 1014.2
20260504173224 15 147 0.0 0.0 0.00 0.00 0.00 79 1014.0
20260504172721 15 125 0.0 0.0 0.00 0.00 0.00 81 1013.9
20260504172217 15 189 0.0 0.0 0.00 0.00 0.00 80 1014.0
20260504171714 15 214 0.0 0.0 0.00 0.00 0.00 80 1014.0
20260504171211 14 217 0.0 0.0 0.00 0.00 0.00 82 1013.9
20260504170708 15 233 0.0 0.0 0.00 0.00 0.00 79 1013.9
20260504170205 15 230 0.0 0.0 0.00 0.00 0.00 80 1013.7
20260504160124 14 245 0.0 0.0 0.00 0.00 0.00 82 1013.8
20260504151051 14 13 0.0 0.0 0.00 0.00 0.00 81 1013.5
20260504150548 14 205 0.0 0.0 0.00 0.00 0.00 81 1013.4